Regional Weather Roundup
Issued by NWS

Home | Current Version | Previous Version | Text Only | Print | Product List | Glossary On
Versions: 1 2 3 4 5 6 7 8 9 10 11 12 13 14 15 16 17 18 19 20 21 22 23 24 25 26 27 28 29 30 31 32 33 34 35 36 37 38 39 40 41 42 43 44 45 46 47 48 49 50
000
ASUS44 KLIX 010307
RWRLA
LOUISIANA WEATHER ROUNDUP
NATIONAL WEATHER SERVICE NEW ORLEANS LA
1000 PM CDT TUE MAR 31 2015

NOTE: "FAIR" INDICATES FEW OR NO CLOUDS BELOW 12,000 FEET WITH NO
      SIGNIFICANT WEATHER AND/OR OBSTRUCTIONS TO VISIBILITY.
      SKY/WX - SKY CONDITION AND SIGNIFICANT WEATHER.
      TMP - AIR TEMPERATURE.    DP   - DEWPOINT TEMPERATURE.
      RH  - RELATIVE HUMIDITY.  PRES - PRESSURE.
      HX  - HEAT INDEX.         WCI  - WIND CHILL INDEX.

*  THESE STATIONS ARE NOT NWS OR FAA STATIONS AND ARE NOT UNDER
   NWS QUALITY CONTROL.

LAZ040-048-061>063-065-066-069-010400-
SOUTHEAST LOUISIANA

CITY           SKY/WX    TMP DP  RH WIND       PRES   REMARKS
N.O. AUDUBON     N/A     66  66 100 MISG        N/A
N.O. INTL ARPT CLEAR     69  61  75 SW9       30.07R
N.O. LAKEFRONT CLEAR     73  62  68 SW10      30.07R
SLIDELL        CLEAR     72  62  71 SW6       30.06R
BATON ROUGE    PTCLDY    68  59  73 SW9       30.05R
BOOTHVILLE     CLEAR     73  67  81 SW9       30.09R
BELLE CHASSE   PTCLDY    64  61  90 SW3       30.07R
BOGALUSA*        N/A     71  59  67 SW6       30.06R
GALLIANO*      CLEAR     70  65  82 CALM      30.08S
NEW ROADS*     FAIR      68  56  66 S5        30.04S
GONZALES*      FAIR      67  63  88 CALM      30.05S
HAMMOND*       CLEAR     70  59  68 SW3       30.08R
HOUMA*         CLEAR     63  62  97 CALM      30.07S FOG
PORT FOURCHON* CLEAR     73  66  78 SW7       30.11S

$$

LAZ041-044-053-054-010400-
SOUTHWEST LOUISIANA

CITY           SKY/WX    TMP DP  RH WIND       PRES   REMARKS
LAKE CHARLES   PTCLDY    69  65  86 S6        30.03R
LAFAYETTE      CLEAR     66  60  81 S5        30.04S
PATTERSON      PTCLDY    64  63  94 CALM      30.07S
SALT POINT       N/A     67  65  93 CALM      30.05S
NEW IBERIA     CLEAR     65  61  87 S6        30.05S
CHENAULT AIRPK CLEAR     66  64  94 S5        30.03

$$

LAZ027-028-010400-
CENTRAL LOUISIANA

CITY           SKY/WX    TMP DP  RH WIND       PRES   REMARKS
FORT POLK      CLEAR     68  63  83 S10       30.01R
ALEXANDRIA INT PTCLDY    70  61  73 S9        29.99R
ALEXANDRIA     PTCLDY    71  61  70 SW7       30.01R

$$

LAZ001-002-010400-
NORTHWEST LOUISIANA

CITY           SKY/WX    TMP DP  RH WIND       PRES   REMARKS
SHREVEPORT     PTCLDY    67  59  75 CALM      29.96R
BARKSDALE AFB  PTCLDY    66  60  79 SE2       29.96R HAZE
DTN SHREVEPORT PTCLDY    65  58  78 CALM      29.96R

$$

LAZ014-016-010400-
NORTHEAST LOUISIANA

CITY           SKY/WX    TMP DP  RH WIND       PRES   REMARKS
MONROE         CLEAR     67  60  78 CALM      29.98R
TALLULAH       CLEAR     72  56  57 S5        29.99R

$$



USA.gov is the U.S. government's official web portal to all federal, state and local government web resources and services.